Overview Statistics Trail Chart Weather Telemetry Raw packets
 

This is the latest recevied weather packets stored in our database for station/object N7ZEF. If no packets are shown the sender has not sent any weather packets the latest 10 day(s).

<< 42 43 44 45 46 47 48 >>
Time Temp. Humidity Pressure Rain* Wind** Luminosity Snow
1777525118 3.33° C 82% 1023.1 hPa 0 mm - - -
1777524516 3.33° C 81% 1023 hPa 0 mm - - -
1777523915 3.89° C 80% 1023.1 hPa 0 mm - - -
1777523313 4.44° C 79% 1023.1 hPa 0 mm - - -
1777522712 4.44° C 77% 1023.1 hPa 0 mm - - -
1777522111 4.44° C 74% 1023.2 hPa 0 mm - - -
1777521509 5° C 72% 1023.2 hPa 0 mm - - -
1777520908 5.56° C 69% 1023.1 hPa 0 mm - - -
1777520306 5° C 66% 1022.9 hPa 0 mm - - -
1777519705 5.56° C 63% 1022.7 hPa 0 mm - - -
1777519104 5.56° C 62% 1022.5 hPa 0 mm - - -
1777518502 5.56° C 63% 1022.3 hPa 0 mm - - -
1777518321 5.56° C 65% 1022.1 hPa 0 mm - - -
1777517901 5.56° C 65% 1022.1 hPa 0 mm - - -
1777517300 5.56° C 65% 1022 hPa 0 mm - - -
1777516698 5.56° C 64% 1022 hPa 0 mm - - -
1777516097 6.11° C 63% 1021.7 hPa 0 mm - - -
1777515501 6.67° C 62% 1021.6 hPa 0 mm - - -
1777514894 7.22° C 54% 1021.2 hPa 0 mm - - -
1777514293 7.22° C 51% 1021 hPa 0 mm - - -
1777513691 7.78° C 49% 1021.1 hPa 0 mm - - -
1777513090 7.78° C 45% 1021 hPa 0 mm - - -
1777512489 8.33° C 44% 1020.7 hPa 0 mm - - -
1777511887 8.33° C 44% 1020.7 hPa 0 mm - - -
1777511286 8.89° C 42% 1020.7 hPa 0 mm - - -

* Rain latest hour (hover to see other rain measurements)
** Current wind speed in m/s (hover to see current wind gust speed)